Shahre-Kord, Iran

4:17 PM +0430 on April 19, 2018 (GMT +0430)
Shahre Kord

Weather History for OIFS - April, 2014

Change the Weather History Date:

Monday, April 7, 2014

  Actual Average Record
Temperature  
Mean Temperature 46 °F -  
Max Temperature 68 °F - - ()
Min Temperature 25 °F - - ()
Degree Days  
Heating Degree Days 18    
Moisture  
Dew Point 20 °F    
Average Humidity 33    
Maximum Humidity 74    
Minimum Humidity 7    
Precipitation  
Precipitation 0.00 in - - ()
Sea Level Pressure  
Sea Level Pressure 30.27 in    
Wind  
Wind Speed 2 mph ()    
Max Wind Speed 5 mph    
Max Gust Speed -    
Visibility 6.0 miles    
Events      
T = Trace of Precipitation, MM = Missing Value Source: Averaged Metar Reports

Daily Weather History Graph

Daily Weather History Graph

Search for Another Location

Airport or City:

Trip Planner

Search our weather history database for the weather conditions in past years. The results will help you decide how hot, cold, wet, or windy it might be!

Date:

Astronomy

Apr. 07, 2014 Rise Set
Actual Time 6:47 AM +0430 7:30 PM +0430
Civil Twilight 6:22 AM +0430 7:55 PM +0430
Nautical Twilight 5:53 AM +0430 8:24 PM +0430
Astronomical Twilight 5:23 AM +0430 8:54 PM +0430
Moon 12:31 PM +0430 (4/7) 1:42 AM +0430 (4/7)
Length of Visible Light 13h 32m
Length of Day
12h 42m
Waxing Crescent, 50% of the Moon is Illuminated
Apr 7
Waxing Crescent
Apr 7
First Quarter
Apr 15
Full
Apr 22
Last Quarter
Apr 29
New

Hourly Weather History & Observations

Time (+0430) Temp. Dew Point Humidity Pressure Visibility Wind Dir Wind Speed Gust Speed Precip Events Conditions
12:30 AM 37.4 °F 23.0 °F 56% 30.30 in - WSW 2.3 mph - N/A   Clear
1:30 AM 34 °F 22 °F 51% 30.14 in 6 mi South 2.2 mph - -   Clear
1:30 AM 33.8 °F 23.0 °F 65% 30.30 in - South 2.3 mph - N/A   Clear
2:30 AM 33.8 °F 23.0 °F 65% 30.30 in - SSW 2.3 mph - N/A   Unknown
3:30 AM 32.0 °F 19.4 °F 60% 30.30 in - NW 2.3 mph - N/A   Unknown
4:30 AM 31 °F 19 °F 48% 30.11 in 6 mi NNW 2.2 mph - -  
4:30 AM 30.2 °F 19.4 °F 64% 30.27 in - NNW 2.3 mph - N/A   Clear
5:30 AM 26.6 °F 19.4 °F 74% 30.30 in - North 2.3 mph - N/A   Clear
6:30 AM 28.4 °F 21.2 °F 74% 30.30 in - WNW 2.3 mph - N/A   Clear
7:30 AM 26 °F 19 °F 64% 30.22 in 6 mi Calm Calm - -   Clear
7:30 AM 26.6 °F 19.4 °F 74% 30.30 in - Calm Calm - N/A   Clear
8:30 AM 39.2 °F 24.8 °F 56% 30.36 in - Calm Calm - N/A   Clear
9:30 AM 44.6 °F 26.6 °F 49% 30.36 in - SE 2.3 mph - N/A   Clear
10:22 AM 51.8 °F 24.8 °F 35% 30.36 in - South 2.3 mph - N/A   Clear
10:30 AM 53 °F 25 °F 22% 30.17 in 6 mi South 2.2 mph - -   Clear
10:30 AM 51.8 °F 24.8 °F 35% 30.36 in - South 2.3 mph - N/A   Clear
11:23 AM 57.2 °F 24.8 °F 29% 30.36 in - South 2.3 mph - N/A   Clear
11:30 AM 57.2 °F 24.8 °F 29% 30.36 in - South 2.3 mph - N/A   Clear
12:19 PM 59.0 °F 14.0 °F 17% 30.33 in - West 2.3 mph - N/A   Clear
12:30 PM 59.0 °F 14.0 °F 17% 30.33 in - West 2.3 mph - N/A   Clear
1:19 PM 62.6 °F 15.8 °F 16% 30.33 in - SSW 2.3 mph - N/A   Clear
1:30 PM 63 °F 17 °F 8% 30.15 in 6 mi SSW 2.2 mph - -   Clear
1:30 PM 62.6 °F 15.8 °F 16% 30.33 in - SSW 2.3 mph - N/A   Clear
2:22 PM 64.4 °F 17.6 °F 16% 30.30 in - SSE 4.6 mph - N/A   Clear
2:30 PM 64.4 °F 17.6 °F 16% 30.30 in - SSE 4.6 mph - N/A   Clear
3:18 PM 66.2 °F 19.4 °F 17% 30.27 in - SSE 4.6 mph - N/A   Clear
3:30 PM 66.2 °F 19.4 °F 17% 30.27 in - SSE 4.6 mph - N/A   Clear
4:18 PM 66.2 °F 17.6 °F 15% 30.24 in - SE 2.3 mph - N/A   Clear
4:30 PM 67 °F 17 °F 7% 30.07 in 6 mi SE 2.2 mph - -   Clear
4:30 PM 66.2 °F 17.6 °F 15% 30.24 in - SE 2.3 mph - N/A   Clear
5:19 PM 68.0 °F 17.6 °F 15% 30.24 in - East 2.3 mph - N/A   Clear
5:30 PM 68.0 °F 17.6 °F 15% 30.24 in - East 2.3 mph - N/A   Clear
6:17 PM 68.0 °F 19.4 °F 16% 30.24 in - South 4.6 mph - N/A   Clear
6:30 PM 68.0 °F 19.4 °F 16% 30.24 in - South 4.6 mph - N/A   Clear
7:30 PM 58 °F 24 °F 15% 30.16 in 6 mi SW 4.5 mph - -   Clear
7:30 PM 59.0 °F 23.0 °F 25% 30.27 in - SW 4.6 mph - N/A   Clear
8:19 PM 53.6 °F 21.2 °F 28% 30.27 in - WSW 2.3 mph - N/A   Clear
8:30 PM 53.6 °F 21.2 °F 28% 30.27 in - WSW 2.3 mph - N/A   Clear
9:30 PM 48.2 °F 19.4 °F 32% 30.30 in - WNW 4.6 mph - N/A   Clear
10:30 PM 49 °F 17 °F 16% 30.12 in 6 mi NW 4.5 mph - -   Clear
10:30 PM 48.2 °F 15.8 °F 27% 30.33 in - NW 4.6 mph - N/A   Clear
11:20 PM 42.8 °F 19.4 °F 39% 30.33 in - West 2.3 mph - N/A   Clear
11:30 PM 42.8 °F 19.4 °F 39% 30.33 in - West 2.3 mph - N/A   Clear